Overview Statistics Trail Chart Weather Telemetry Raw packets
 

This is the latest recevied weather packets stored in our database for station/object DL2AKT-20. If no packets are shown the sender has not sent any weather packets the latest 10 day(s).

<< 33 34 35 36 37 38 39 >>
Time Temp. Humidity Pressure Rain* Wind** Luminosity Snow
1777413051 13.33° C 31% 1027 hPa - - - -
1777412151 13.33° C 31% 1026.9 hPa - - - -
1777411251 13.89° C 31% 1026.8 hPa - - - -
1777410351 13.89° C 29% 1026.7 hPa - - - -
1777409451 13.33° C 28% 1026.7 hPa - - - -
1777408550 12.78° C 29% 1026.6 hPa - - - -
1777407650 13.33° C 29% 1026.7 hPa - - - -
1777406750 14.44° C 28% 1026.6 hPa - - - -
1777405850 13.89° C 28% 1026.5 hPa - - - -
1777404949 14.44° C 26% 1026.4 hPa - - - -
1777404049 13.89° C 26% 1026.2 hPa - - - -
1777403149 14.44° C 26% 1026 hPa - - - -
1777402250 14.44° C 26% 1026 hPa - - - -
1777401350 15° C 27% 1025.8 hPa - - - -
1777400450 15° C 27% 1025.7 hPa - - - -
1777399550 15° C 27% 1025.6 hPa - - - -
1777398650 15.56° C 27% 1025.3 hPa - - - -
1777397750 15.56° C 27% 1025.3 hPa - - - -
1777396850 15.56° C 28% 1025.1 hPa - - - -
1777395950 16.11° C 29% 1025.2 hPa - - - -
1777395050 16.11° C 29% 1025.1 hPa - - - -
1777394149 16.67° C 29% 1025 hPa - - - -
1777393249 16.11° C 29% 1025 hPa - - - -
1777392349 16.11° C 29% 1024.9 hPa - - - -
1777391449 16.67° C 29% 1025 hPa - - - -

* Rain since midnight (hover to see other rain measurements)
** Current wind speed in m/s (hover to see current wind gust speed)